{"data":{"norad_id":62286,"intl_designator":"2024-237V","name":"STARLINK-33564","alt_names":[],"object_type":"PAYLOAD","status":"ACTIVE","operator":null,"country":"US","launch_date":"2024-12-08","launch_site_code":"AFETR","launch_vehicle":null,"mission":null,"orbit_class":"UNKNOWN","rcs_meters":null,"size_class":null,"mass_kg":null,"dimensions":null,"purposes":["comms"],"wikipedia_slug":null,"has_3d_model":false,"image_url":null,"decayed_at":null,"tle_current":{"epoch":"2026-09-21T05:11:34.448352Z","epoch_age_seconds":115794,"freshness":"FRESH","line1":"1 62286U 24237V   26264.21637093  .00005223  00000+0  19918-3 0  9995","line2":"2 62286  42.9983 192.2627 0001251 271.4690  88.6018 15.27582547101096","mean_motion":15.27582547,"eccentricity":0.0001251,"inclination_deg":42.9983,"raan_deg":192.2627,"arg_perigee_deg":271.469,"mean_anomaly_deg":88.6018,"bstar":0.00019918,"rev_number":10109,"period_min":94.266591538899,"perigee_km":482.18313598945,"apogee_km":483.89980284249,"semimajor_km":6861.178469416,"source":"CELESTRAK","updated_at":"2026-09-22T09:00:49.569781Z"}}}